When you browse on this site, cookies collect data to enhance your experience and personalize the content and advertising you see.
Visit our Privacy Policy to learn more. By continuing to use the site, you agree to this use of cookies and data.
EN

Hourly Weather Olympia

Today, 13 August, Thursday

Time Temperature Precipitation Wind Pressure Humidity
00:00 +27°C° 0 mm 2 mps 759 mmHg 67%
01:00 +26°C° 0 mm 2 mps 759 mmHg 68%
02:00 +26°C° 0 mm 2 mps 758 mmHg 68%
03:00 +26°C° 0 mm 2 mps 758 mmHg 68%
04:00 +26°C° 0 mm 2 mps 758 mmHg 69%
05:00 +28°C° 0 mm 2 mps 759 mmHg 61%
06:00 +30°C° 0 mm 2 mps 759 mmHg 54%
07:00 +32°C° 0 mm 1 mps 759 mmHg 47%
08:00 +35°C° 0 mm 2 mps 759 mmHg 42%
09:00 +36°C° 0 mm 2 mps 759 mmHg 38%
10:00 +38°C° 0 mm 3 mps 759 mmHg 33%
11:00 +38°C° 0 mm 3 mps 759 mmHg 33%
12:00 +38°C° 0 mm 4 mps 759 mmHg 33%
13:00 +39°C° 0 mm 5 mps 759 mmHg 33%
14:00 +39°C° 0 mm 5 mps 759 mmHg 35%
15:00 +37°C° 0 mm 4 mps 758 mmHg 37%
16:00 +36°C° 0 mm 4 mps 758 mmHg 40%
17:00 +34°C° 0 mm 4 mps 758 mmHg 49%
18:00 +30°C° 0 mm 3 mps 758 mmHg 59%
19:00 +28°C° 0 mm 3 mps 758 mmHg 68%
20:00 +28°C° 0 mm 2 mps 759 mmHg 68%
21:00 +28°C° 0 mm 2 mps 759 mmHg 68%
22:00 +27°C° 0 mm 2 mps 759 mmHg 68%
23:00 +27°C° 0 mm 2 mps 759 mmHg 67%

Tomorrow, 14 August, Friday

Time Temperature Precipitation Wind Pressure Humidity
00:00 +27°C° 0 mm 1 mps 759 mmHg 67%
01:00 +27°C° 0 mm 1 mps 759 mmHg 66%
02:00 +26°C° 0 mm 1 mps 759 mmHg 66%
03:00 +26°C° 0 mm 1 mps 758 mmHg 65%
04:00 +26°C° 0 mm 1 mps 758 mmHg 64%
05:00 +28°C° 0 mm 1 mps 758 mmHg 58%
06:00 +30°C° 0 mm 1 mps 759 mmHg 51%
07:00 +30°C° 0 mm 0 mps 759 mmHg 44%
08:00 +33°C° 0 mm 1 mps 759 mmHg 41%
09:00 +35°C° 0 mm 1 mps 759 mmHg 37%
10:00 +38°C° 0 mm 2 mps 759 mmHg 33%
11:00 +38°C° 0 mm 3 mps 758 mmHg 33%
12:00 +38°C° 0 mm 4 mps 758 mmHg 32%
13:00 +38°C° 0 mm 4 mps 758 mmHg 32%
14:00 +38°C° 0 mm 4 mps 758 mmHg 35%
15:00 +37°C° 0 mm 4 mps 757 mmHg 38%
16:00 +36°C° 0 mm 4 mps 757 mmHg 41%
17:00 +34°C° 0 mm 3 mps 757 mmHg 49%
18:00 +31°C° 0 mm 2 mps 757 mmHg 57%
19:00 +28°C° 0 mm 1 mps 757 mmHg 64%
20:00 +28°C° 0 mm 1 mps 758 mmHg 66%
21:00 +27°C° 0 mm 1 mps 758 mmHg 68%
22:00 +25°C° 0 mm 0 mps 758 mmHg 70%
23:00 +27°C° 0 mm 1 mps 758 mmHg 69%

Day after tomorrow, 15 August, Saturday

Time Temperature Precipitation Wind Pressure Humidity
00:00 +27°C° 0 mm 1 mps 758 mmHg 68%
01:00 +27°C° 0 mm 1 mps 758 mmHg 67%
02:00 +26°C° 0 mm 1 mps 758 mmHg 65%
03:00 +26°C° 0 mm 1 mps 757 mmHg 64%
04:00 +26°C° 0 mm 1 mps 757 mmHg 63%
05:00 +28°C° 0 mm 1 mps 757 mmHg 57%
06:00 +30°C° 0 mm 1 mps 757 mmHg 51%
07:00 +32°C° 0 mm 1 mps 757 mmHg 45%
08:00 +34°C° 0 mm 1 mps 757 mmHg 40%
09:00 +36°C° 0 mm 2 mps 757 mmHg 36%
10:00 +38°C° 0 mm 2 mps 757 mmHg 32%
11:00 +38°C° 0 mm 3 mps 757 mmHg 33%
12:00 +38°C° 0 mm 4 mps 757 mmHg 33%
13:00 +39°C° 0 mm 5 mps 757 mmHg 34%
14:00 +37°C° 0 mm 4 mps 756 mmHg 36%
15:00 +36°C° 0 mm 4 mps 756 mmHg 39%
16:00 +35°C° 0 mm 4 mps 756 mmHg 41%
17:00 +33°C° 0 mm 3 mps 756 mmHg 51%
18:00 +30°C° 0 mm 3 mps 756 mmHg 61%
19:00 +28°C° 0 mm 2 mps 756 mmHg 71%
20:00 +27°C° 0 mm 2 mps 756 mmHg 71%
21:00 +27°C° 0 mm 2 mps 756 mmHg 71%
22:00 +26°C° 0 mm 2 mps 756 mmHg 71%
23:00 +26°C° 0 mm 1 mps 756 mmHg 71%

16 August, Sunday

Time Temperature Precipitation Wind Pressure Humidity
00:00 +25°C° 0 mm 1 mps 756 mmHg 71%
01:00 +25°C° 0 mm 1 mps 756 mmHg 71%
02:00 +25°C° 0 mm 1 mps 756 mmHg 72%
03:00 +25°C° 0 mm 1 mps 755 mmHg 73%
04:00 +25°C° 0 mm 2 mps 755 mmHg 74%
05:00 +27°C° 0 mm 2 mps 755 mmHg 67%
06:00 +29°C° 0 mm 2 mps 755 mmHg 60%
07:00 +31°C° 0 mm 2 mps 756 mmHg 53%
08:00 +33°C° 0 mm 3 mps 756 mmHg 47%
09:00 +35°C° 0 mm 3 mps 756 mmHg 40%
10:00 +37°C° 0 mm 3 mps 757 mmHg 33%
11:00 +38°C° 0 mm 4 mps 756 mmHg 32%
12:00 +38°C° 0 mm 4 mps 756 mmHg 31%
13:00 +39°C° 0 mm 5 mps 756 mmHg 31%
14:00 +37°C° 0 mm 4 mps 756 mmHg 34%
15:00 +36°C° 0 mm 4 mps 756 mmHg 37%
16:00 +35°C° 0 mm 4 mps 756 mmHg 41%
17:00 +33°C° 0 mm 3 mps 756 mmHg 51%
18:00 +30°C° 0 mm 3 mps 756 mmHg 62%
19:00 +27°C° 0 mm 2 mps 756 mmHg 72%
20:00 +27°C° 0 mm 2 mps 757 mmHg 74%
21:00 +26°C° 0 mm 2 mps 757 mmHg 76%
22:00 +26°C° 0 mm 1 mps 757 mmHg 78%
23:00 +26°C° 0 mm 1 mps 757 mmHg 77%

17 August, Monday

Time Temperature Precipitation Wind Pressure Humidity
00:00 +25°C° 0 mm 1 mps 757 mmHg 76%
01:00 +25°C° 0 mm 1 mps 757 mmHg 75%
02:00 +25°C° 0 mm 1 mps 757 mmHg 74%
03:00 +25°C° 0 mm 1 mps 757 mmHg 72%
04:00 +25°C° 0 mm 1 mps 757 mmHg 71%
05:00 +27°C° 0 mm 1 mps 757 mmHg 62%
06:00 +29°C° 0 mm 1 mps 757 mmHg 54%
07:00 +31°C° 0 mm 1 mps 757 mmHg 46%
08:00 +33°C° 0 mm 1 mps 757 mmHg 42%
09:00 +36°C° 0 mm 2 mps 758 mmHg 37%
10:00 +37°C° 0 mm 2 mps 758 mmHg 32%
11:00 +38°C° 0 mm 3 mps 757 mmHg 31%
12:00 +38°C° 0 mm 3 mps 757 mmHg 30%
13:00 +40°C° 0 mm 4 mps 757 mmHg 29%
14:00 +38°C° 0 mm 4 mps 757 mmHg 32%
15:00 +37°C° 0 mm 4 mps 757 mmHg 35%
16:00 +36°C° 0 mm 4 mps 756 mmHg 38%
17:00 +33°C° 0 mm 4 mps 757 mmHg 47%
18:00 +30°C° 0 mm 3 mps 757 mmHg 56%
19:00 +27°C° 0 mm 3 mps 757 mmHg 65%
20:00 +27°C° 0 mm 3 mps 757 mmHg 68%
21:00 +26°C° 0 mm 2 mps 757 mmHg 70%
22:00 +25°C° 0 mm 2 mps 757 mmHg 72%
23:00 +25°C° 0 mm 2 mps 757 mmHg 73%

18 August, Tuesday

Time Temperature Precipitation Wind Pressure Humidity
00:00 +25°C° 0 mm 2 mps 757 mmHg 74%
01:00 +25°C° 0 mm 1 mps 757 mmHg 75%
02:00 +24°C° 0 mm 1 mps 757 mmHg 73%
03:00 +24°C° 0 mm 1 mps 756 mmHg 71%
04:00 +24°C° 0 mm 1 mps 756 mmHg 69%
05:00 +26°C° 0 mm 1 mps 756 mmHg 61%
06:00 +29°C° 0 mm 1 mps 756 mmHg 53%
07:00 +31°C° 0 mm 1 mps 756 mmHg 45%
08:00 +33°C° 0 mm 1 mps 756 mmHg 39%
09:00 +36°C° 0 mm 2 mps 756 mmHg 33%
10:00 +38°C° 0 mm 2 mps 756 mmHg 28%
11:00 +38°C° 0 mm 3 mps 756 mmHg 28%
12:00 +38°C° 0 mm 4 mps 755 mmHg 29%
13:00 +40°C° 0 mm 5 mps 755 mmHg 30%
14:00 +37°C° 0 mm 4 mps 754 mmHg 33%
15:00 +36°C° 0 mm 4 mps 754 mmHg 36%
16:00 +35°C° 0 mm 4 mps 754 mmHg 39%
17:00 +33°C° 0 mm 3 mps 754 mmHg 50%
18:00 +30°C° 0 mm 3 mps 754 mmHg 60%
19:00 +27°C° 0 mm 2 mps 754 mmHg 71%
20:00 +27°C° 0 mm 2 mps 754 mmHg 71%
21:00 +26°C° 0 mm 2 mps 754 mmHg 71%
22:00 +26°C° 0 mm 2 mps 754 mmHg 71%
23:00 +26°C° 0 mm 2 mps 754 mmHg 69%
Show more